Location: Rumah Long Bangan
(2.8362°N, 113.7519°E)
Time: 19:06:19
(UTC+00:00)

Cosmos 1980 Rocket - Pass Details

Date: 24 October 2021
Orbit: 828 x 851 km, 71.0° (Epoch: 08 December)

Event Time Altitude Azimuth Distance (km) Brightness Sun altitude
Exits shadow 19:19:40 20° 104° (ESE) 1,853 4.4 -42.0°
Drops below altitude 10° 19:22:07 10° 127° (SE) 2,454 5.2 -41.4°
Sets 19:24:58 0° 140° (SE) 3,386 5.9 -40.7°
